Starlink 34136

operational
NORAD ID: 64112 Int'l Des: 2025-110 Owner: SPXS Country: US Constellation: starlink
LEOCIRCULAR

Über Starlink 34136

Beschreibung wird geladen...

Live-Position

3D-Globus wird geladen...

Nächste Überflüge

Höhenverlauf

Altitude vs Time

uPlot chart will show altitude changes over time

Zweizeiliger Elementsatz

1 64112U 25110S 25354.40429003 .00013454 00000-0 46552-3 0 9996
2 64112 53.1595 35.0319 0000959 97.5980 262.5130 15.30200421 33740
Epoch: 20. Dez. 2025 • Age: 7 hours

Aktueller Status

Höhe 475.8 km
Geschwindigkeit 7.63 km/s
Subsatellitenpunkt 1.17°N, 127.97°W
Startdatum 23. Mai 2025
Alter 0.5 years
Typ internet

Technische Details

Klassifizierung Payload
Masse 575.00 kg
Trockenmasse 530.00 kg
Gesamtmasse 575.00 kg
Länge 0.30 m
Durchmesser 4.10 m
Spannweite 29.00 m
Form Box + pan
Hersteller SPXS
Bus-Typ Starlink V2MO
Phasenstatus In Orbit
Besitzer/Staat SPXS/US

Große Konstellationen

Loading constellations...